When you browse on this site, cookies collect data to enhance your experience and personalize the content and advertising you see.
Visit our Privacy Policy to learn more. By continuing to use the site, you agree to this use of cookies and data.
  • In Hungary
  • List of Countries
  • For 7 days
  • Water Temperature
  • Weather Map
  • News
  • Weather Widgets
  • user-avatar
    Login

    Hourly Weather Jashpurnagar

    Today, 9 April, Thursday

    Time Temperature Precipitation Wind Pressure Humidity
    00:00 +23°C° 0 mm 0 mps 699 mmHg 42%
    01:00 +23°C° 0 mm 0 mps 699 mmHg 42%
    02:00 +25°C° 0 mm 1 mps 698 mmHg 41%
    03:00 +24°C° 0 mm 1 mps 698 mmHg 41%
    04:00 +24°C° 0 mm 1 mps 698 mmHg 42%
    05:00 +23°C° 0 mm 1 mps 698 mmHg 42%
    06:00 +21°C° 0 mm 2 mps 699 mmHg 53%
    07:00 +25°C° 0 mm 1 mps 699 mmHg 46%
    08:00 +28°C° 0 mm 1 mps 700 mmHg 40%
    09:00 +31°C° 0 mm 1 mps 701 mmHg 34%
    10:00 +33°C° 0 mm 1 mps 701 mmHg 29%
    11:00 +35°C° 0 mm 2 mps 701 mmHg 24%
    12:00 +36°C° 0 mm 2 mps 702 mmHg 19%
    13:00 +36°C° 0 mm 2 mps 701 mmHg 19%
    14:00 +36°C° 0 mm 2 mps 700 mmHg 18%
    15:00 +35°C° 0 mm 2 mps 699 mmHg 18%
    16:00 +35°C° 0 mm 2 mps 699 mmHg 19%
    17:00 +35°C° 0 mm 2 mps 698 mmHg 19%
    18:00 +33°C° 0 mm 1 mps 698 mmHg 20%
    19:00 +31°C° 0 mm 1 mps 698 mmHg 22%
    20:00 +30°C° 0 mm 1 mps 699 mmHg 24%
    21:00 +28°C° 0 mm 1 mps 699 mmHg 26%
    22:00 +27°C° 0 mm 1 mps 699 mmHg 27%
    23:00 +27°C° 0 mm 1 mps 699 mmHg 27%

    Tomorrow, 10 April, Friday

    Time Temperature Precipitation Wind Pressure Humidity
    00:00 +26°C° 0 mm 1 mps 699 mmHg 27%
    01:00 +26°C° 0 mm 1 mps 699 mmHg 27%
    02:00 +26°C° 0 mm 1 mps 698 mmHg 26%
    03:00 +26°C° 0 mm 2 mps 698 mmHg 26%
    04:00 +25°C° 0 mm 1 mps 698 mmHg 26%
    05:00 +25°C° 0 mm 1 mps 698 mmHg 27%
    06:00 +24°C° 0 mm 1 mps 699 mmHg 27%
    07:00 +27°C° 0 mm 1 mps 700 mmHg 24%
    08:00 +30°C° 0 mm 1 mps 701 mmHg 20%
    09:00 +33°C° 0 mm 1 mps 701 mmHg 17%
    10:00 +35°C° 0 mm 2 mps 702 mmHg 16%
    11:00 +37°C° 0 mm 2 mps 702 mmHg 14%
    12:00 +38°C° 0 mm 2 mps 702 mmHg 13%
    13:00 +38°C° 0 mm 2 mps 701 mmHg 12%
    14:00 +39°C° 0 mm 2 mps 700 mmHg 12%
    15:00 +39°C° 0 mm 3 mps 699 mmHg 11%
    16:00 +38°C° 0 mm 3 mps 699 mmHg 12%
    17:00 +37°C° 0 mm 2 mps 699 mmHg 13%
    18:00 +37°C° 0 mm 2 mps 698 mmHg 14%
    19:00 +35°C° 0 mm 2 mps 699 mmHg 16%
    20:00 +32°C° 0 mm 1 mps 699 mmHg 17%
    21:00 +30°C° 0 mm 1 mps 700 mmHg 19%
    22:00 +29°C° 0 mm 1 mps 700 mmHg 19%
    23:00 +29°C° 0 mm 1 mps 700 mmHg 19%

    Day after tomorrow, 11 April, Saturday

    Time Temperature Precipitation Wind Pressure Humidity
    00:00 +28°C° 0 mm 1 mps 700 mmHg 19%
    01:00 +27°C° 0 mm 1 mps 699 mmHg 19%
    02:00 +26°C° 0 mm 1 mps 699 mmHg 20%
    03:00 +26°C° 0 mm 1 mps 699 mmHg 20%
    04:00 +25°C° 0 mm 1 mps 699 mmHg 21%
    05:00 +25°C° 0 mm 1 mps 699 mmHg 21%
    06:00 +24°C° 0 mm 1 mps 699 mmHg 21%
    07:00 +28°C° 0 mm 1 mps 700 mmHg 19%
    08:00 +31°C° 0 mm 1 mps 701 mmHg 16%
    09:00 +34°C° 0 mm 1 mps 702 mmHg 14%
    10:00 +36°C° 0 mm 1 mps 702 mmHg 12%
    11:00 +37°C° 0 mm 1 mps 702 mmHg 11%
    12:00 +40°C° 0 mm 2 mps 702 mmHg 9%
    13:00 +40°C° 0 mm 2 mps 701 mmHg 9%
    14:00 +40°C° 0 mm 3 mps 700 mmHg 9%
    15:00 +41°C° 0 mm 4 mps 699 mmHg 9%
    16:00 +40°C° 0 mm 4 mps 699 mmHg 10%
    17:00 +38°C° 0 mm 3 mps 698 mmHg 10%
    18:00 +37°C° 0 mm 3 mps 698 mmHg 11%
    19:00 +35°C° 0 mm 3 mps 699 mmHg 12%
    20:00 +33°C° 0 mm 3 mps 699 mmHg 13%
    21:00 +30°C° 0 mm 2 mps 699 mmHg 14%
    22:00 +29°C° 0 mm 2 mps 699 mmHg 16%
    23:00 +28°C° 0 mm 2 mps 700 mmHg 18%

    12 April, Sunday

    Time Temperature Precipitation Wind Pressure Humidity
    00:00 +28°C° 0 mm 1 mps 700 mmHg 19%
    01:00 +27°C° 0 mm 1 mps 699 mmHg 22%
    02:00 +26°C° 0 mm 1 mps 698 mmHg 25%
    03:00 +23°C° 0 mm 0 mps 698 mmHg 28%
    04:00 +23°C° 0 mm 0 mps 698 mmHg 30%
    05:00 +23°C° 0 mm 0 mps 698 mmHg 32%
    06:00 +22°C° 0 mm 0 mps 698 mmHg 35%
    07:00 +25°C° 0 mm 0 mps 699 mmHg 30%
    08:00 +31°C° 0 mm 1 mps 700 mmHg 25%
    09:00 +34°C° 0 mm 1 mps 701 mmHg 20%
    10:00 +36°C° 0 mm 2 mps 701 mmHg 16%
    11:00 +38°C° 0 mm 2 mps 701 mmHg 13%
    12:00 +39°C° 0 mm 3 mps 701 mmHg 10%
    13:00 +40°C° 0 mm 3 mps 700 mmHg 10%
    14:00 +41°C° 0 mm 4 mps 699 mmHg 10%
    15:00 +41°C° 0 mm 4 mps 698 mmHg 9%
    16:00 +39°C° 0 mm 3 mps 697 mmHg 11%
    17:00 +38°C° 0 mm 2 mps 697 mmHg 12%
    18:00 +37°C° 0 mm 2 mps 696 mmHg 13%
    19:00 +35°C° 0 mm 2 mps 697 mmHg 15%
    20:00 +32°C° 0 mm 2 mps 697 mmHg 17%
    21:00 +29°C° 0 mm 2 mps 697 mmHg 18%
    22:00 +29°C° 0 mm 1 mps 697 mmHg 19%
    23:00 +28°C° 0 mm 1 mps 697 mmHg 20%

    13 April, Monday

    Time Temperature Precipitation Wind Pressure Humidity
    00:00 +25°C° 0 mm 0 mps 697 mmHg 20%
    01:00 +27°C° 0 mm 1 mps 697 mmHg 21%
    02:00 +26°C° 0 mm 1 mps 697 mmHg 22%
    03:00 +26°C° 0 mm 1 mps 696 mmHg 23%
    04:00 +25°C° 0 mm 1 mps 696 mmHg 26%
    05:00 +25°C° 0 mm 1 mps 697 mmHg 28%
    06:00 +24°C° 0 mm 1 mps 697 mmHg 30%
    07:00 +27°C° 0 mm 1 mps 698 mmHg 26%
    08:00 +31°C° 0 mm 2 mps 699 mmHg 22%
    09:00 +35°C° 0 mm 2 mps 700 mmHg 18%
    10:00 +37°C° 0 mm 3 mps 699 mmHg 16%
    11:00 +39°C° 0 mm 3 mps 699 mmHg 13%
    12:00 +41°C° 0 mm 4 mps 699 mmHg 11%
    13:00 +42°C° 0 mm 4 mps 698 mmHg 10%
    14:00 +42°C° 0 mm 4 mps 698 mmHg 9%
    15:00 +43°C° 0 mm 3 mps 697 mmHg 8%
    16:00 +42°C° 0 mm 3 mps 696 mmHg 9%
    17:00 +40°C° 0 mm 2 mps 696 mmHg 9%
    18:00 +39°C° 0 mm 2 mps 696 mmHg 10%
    19:00 +37°C° 0 mm 2 mps 696 mmHg 11%
    20:00 +34°C° 0 mm 2 mps 696 mmHg 12%
    21:00 +31°C° 0 mm 2 mps 697 mmHg 13%
    22:00 +31°C° 0 mm 2 mps 697 mmHg 14%
    23:00 +30°C° 0 mm 2 mps 697 mmHg 14%

    14 April, Tuesday

    Time Temperature Precipitation Wind Pressure Humidity
    00:00 +29°C° 0 mm 1 mps 697 mmHg 15%
    01:00 +28°C° 0 mm 1 mps 696 mmHg 17%
    02:00 +27°C° 0 mm 1 mps 696 mmHg 20%
    03:00 +26°C° 0 mm 1 mps 696 mmHg 23%
    04:00 +26°C° 0 mm 1 mps 696 mmHg 23%
    05:00 +26°C° 0 mm 1 mps 696 mmHg 24%
    06:00 +26°C° 0 mm 1 mps 697 mmHg 24%
    07:00 +29°C° 0 mm 1 mps 697 mmHg 21%
    08:00 +32°C° 0 mm 1 mps 698 mmHg 18%
    09:00 +35°C° 0 mm 1 mps 699 mmHg 15%
    10:00 +38°C° 0 mm 2 mps 699 mmHg 14%
    11:00 +39°C° 0 mm 2 mps 699 mmHg 12%
    12:00 +41°C° 0 mm 2 mps 699 mmHg 10%
    13:00 +41°C° 0 mm 2 mps 698 mmHg 10%
    14:00 +41°C° 0 mm 2 mps 698 mmHg 10%
    15:00 +42°C° 0 mm 3 mps 697 mmHg 10%
    16:00 +40°C° 0.1 mm 5 mps 696 mmHg 14%
    17:00 +36°C° 0.1 mm 7 mps 696 mmHg 17%
    18:00 +34°C° 0.1 mm 9 mps 695 mmHg 21%
    19:00 +33°C° 0.1 mm 6 mps 696 mmHg 22%
    20:00 +32°C° 0.1 mm 4 mps 697 mmHg 22%
    21:00 +30°C° 0.1 mm 2 mps 698 mmHg 23%
    22:00 +29°C° 0.2 mm 2 mps 698 mmHg 26%
    23:00 +28°C° 0.2 mm 2 mps 698 mmHg 29%
    Show more